Starlink 2088

operational
NORAD ID: 47371 Int'l Des: 2021-005 Owner: SPXS Country: US Constellation: starlink
LEOCIRCULARSTARLINK_TYPE

About Starlink 2088

Description loading...

Live Position

Loading 3D Globe...

Upcoming Passes

Altitude History

Altitude vs Time

uPlot chart will show altitude changes over time

Two-Line Element Set

1 47371U 21005Y 26020.99276684 -.00005324 00000-0 -33895-3 0 9998
2 47371 53.0534 275.7364 0001533 96.7815 263.3348 15.06382069275852
Epoch: Jan 20, 2026 • Age: 7 hours

Current Status

Altitude 552.4 km
Velocity 7.59 km/s
Sub-Earth Point 51.57°N, 163.61°E
Launch Date Jan 20, 2021
Age 4.9 years
Type internet

Technical Details

Classification Payload
Mass 260.00 kg
Dry Mass 248.00 kg
Total Mass 260.00 kg
Length 0.20 m
Diameter 2.80 m
Span 9.00 m
Shape Box + pan
Manufacturer SPXS
Bus Type Starlink
Phase Status In Orbit
Owner/State SPXS/US

Large Constellations

Loading constellations...